Flag for Germany Weather past 2 weeks in Heinsberg, North Rhine-Westphalia, Germany

Now
39 °F

Partly sunny.


Feels Like: 32 °F
Forecast: 37 / 44 °F
Wind: 10 mph from Southwest

Location: Geilenkirchen Airport

Current Time: Mar 3, 2015 at 9:12:56 AM

Latest Report: Mar 3, 2015 at 7:50 AM


Visibility: N/A

Pressure: 30.07 "Hg

Humidity: 75%

Dew point: 32 °F

Location of HeinsbergLocation

Historic Weather in Heinsberg — Graph

°F

Heinsberg temperature yesterday

Maximum temperature yesterday: 48 °F (at 12:50 AM)
Minimum temperature yesterday: 36 °F (at 3:50 PM)
Average temperature yesterday: 42 °F

Past Weeks' High & Low Weather Summary

 TemperatureHumidityPressure
High50 °F (Feb 26, 12:50 PM)100% (Feb 17, 12:50 AM)30.77 "Hg (Feb 17, 12:50 AM)
Low28 °F (Feb 17, 12:50 AM)46% (Mar 2, 1:50 PM)29.39 "Hg (Feb 23, 4:50 AM)
Average40 °F83%30.01 "Hg
* Reported Feb 16 7:50 PM — Mar 3 7:50 AM, Heinsberg, Weather by CustomWeather, © 2015

Note: Actual official high and low records may vary slightly from our data, if they occured in-between our weather recording intervals... More about our weather records

Advertising

Heinsberg weather history for previous 24 hours

 ConditionsComfort  
Time TempWeatherWind HumidityBarometerVisibility
7:50 AM
Tue, Mar 3
39 °FPartly sunny.10 mph75%30.07 "HgN/A
6:50 AM37 °FPassing clouds.12 mph81%30.07 "HgN/A
5:50 AM37 °FClear.10 mph81%30.07 "Hg10 mi
4:50 AM37 °FClear.13 mph81%30.07 "Hg10 mi
3:50 AM39 °FPassing clouds.12 mph75%30.07 "HgN/A
2:50 AM37 °FClear.10 mph81%30.07 "Hg10 mi
1:50 AM39 °FClear.14 mph75%30.04 "Hg10 mi
12:50 AM39 °FClear.13 mph75%30.04 "Hg10 mi
11:50 PM
Mon, Mar 2
39 °FClear.14 mph75%30.01 "Hg10 mi
10:50 PM39 °FClear.13 mph75%29.98 "Hg10 mi
9:50 PM39 °FClear.14 mph70%29.98 "Hg10 mi
8:50 PM41 °FPassing clouds.16 mph61%29.92 "HgN/A
7:50 PM39 °FPassing clouds.18 mph70%29.89 "HgN/A
6:50 PM41 °FScattered showers. Passing clouds.14 mph70%29.86 "HgN/A
5:50 PM41 °FScattered showers. Scattered clouds.12 mph76%29.83 "HgN/A
4:50 PM39 °FScattered clouds.22 mph87%29.80 "HgN/A
3:50 PM36 °FThunderstorms. Broken clouds.17 mph93%29.77 "Hg5 mi
2:50 PM45 °FScattered showers. Broken clouds.22 mph66%29.71 "HgN/A
1:50 PM48 °FBroken clouds.15 mph46%29.71 "HgN/A
12:50 PM46 °FScattered clouds.18 mph57%29.71 "HgN/A
11:50 AM46 °FScattered clouds.17 mph57%29.71 "HgN/A
10:50 AM45 °FPassing clouds.17 mph71%29.71 "HgN/A
9:50 AM43 °FPassing clouds.17 mph76%29.68 "HgN/A
Weather by CustomWeather, © 2015

See weather overviewHow to use our weather pages